Listerhav — ZDKC7 — position and weather

sailwx.info

Track history (hours):
 
Tides and Currents Weather Stations Pressure Air Temp Water Temp Dewpoint Dewpoint Depression Visibility Wind Speed Wind Dir Waves Ship Positions

Listerhav

Last reported at 2014-Nov-23 06:24 UTC. Time now 2014-Nov-24 01:16 UTC.
Position N 55°32' E 015°07'.

Length 88 m; draft 4.1 m.

Type: Cargo ship. MMSI: 236591000.

Date/timePositionNaut miles runAvg speedWind from/ knotsBaromVisibWave heightAir tempDewpointWater temp
2014-Nov-23 06:24N 55°32' E 015°07'8 8.7
2014-Nov-23 05:32N 55°28' E 014°55'9 9.2
2014-Nov-23 04:30N 55°23' E 014°40'9 9.2
2014-Nov-23 03:33N 55°17' E 014°30'9 8.8
2014-Nov-23 02:34N 55°11' E 014°18'26 8.4
2014-Nov-22 23:24N 55°13' E 013°32'8 8.7
2014-Nov-22 22:31N 55°14' E 013°18'8 8.8
2014-Nov-22 21:34N 55°15' E 013°04'9 8.8
2014-Nov-22 20:33N 55°16' E 012°48'7 7.4
2014-Nov-22 19:33N 55°21' E 012°38'8 8.3
2014-Nov-22 18:33N 55°29' E 012°41'8 7.9
2014-Nov-22 17:33N 55°37' E 012°42'7 7.2
2014-Nov-22 16:34N 55°44' E 012°41'8 8.4
2014-Nov-22 15:34N 55°52' E 012°39'9 8.6
2014-Nov-22 14:33N 56°01' E 012°38'7 6.7
2014-Nov-22 13:34N 56°06' E 012°32'8 7.9
2014-Nov-22 12:33N 56°14' E 012°26'9 8.6
2014-Nov-22 11:33N 56°22' E 012°21'67 9.5
2014-Nov-22 04:33N 57°25' E 011°41'1010.0
2014-Nov-22 03:33N 57°34' E 011°33'10 9.5
2014-Nov-22 02:33N 57°43' E 011°29'9 9.3
2014-Nov-22 01:33N 57°52' E 011°30'9 9.0
2014-Nov-22 00:34N 57°58' E 011°43'9 9.0
2014-Nov-21 23:33N 58°07' E 011°48'9 8.8
2014-Nov-21 22:30N 58°16' E 011°50'5 5.2
2014-Nov-21 21:27N 58°21' E 011°54'0 0.0
2014-Nov-21 20:21N 58°21' E 011°54'0 0.0
2014-Nov-21 19:30N 58°21' E 011°54'0 0.0
2014-Nov-21 18:24N 58°21' E 011°54'0 0.0
2014-Nov-21 17:15N 58°21' E 011°54'0 0.0
2014-Nov-21 16:33N 58°21' E 011°54'0 0.0
2014-Nov-21 15:33N 58°21' E 011°54'0 0.0
2014-Nov-21 14:33N 58°21' E 011°54'0 0.0
2014-Nov-21 13:32N 58°21' E 011°54'0 0.0
2014-Nov-21 12:23N 58°21' E 011°54'0 0.0
2014-Nov-21 11:32N 58°21' E 011°54'0 0.0
2014-Nov-21 10:32N 58°21' E 011°54'0 0.0
2014-Nov-21 09:11N 58°21' E 011°54'0 0.0
2014-Nov-21 08:20N 58°21' E 011°54'0 0.0
2014-Nov-21 07:29N 58°21' E 011°54'0 0.0
2014-Nov-21 06:17N 58°21' E 011°54'0 0.0
2014-Nov-21 05:26N 58°21' E 011°54'0 0.0
2014-Nov-21 04:14N 58°21' E 011°54'0 0.0
2014-Nov-21 03:29N 58°21' E 011°54'0 0.0
2014-Nov-21 02:32N 58°21' E 011°54'0 0.0
2014-Nov-21 01:32N 58°21' E 011°54'0 0.0
2014-Nov-21 00:32N 58°21' E 011°54'0 0.0
2014-Nov-20 23:26N 58°21' E 011°54'0 0.0
2014-Nov-20 22:32N 58°21' E 011°54'0 0.0
2014-Nov-20 21:26N 58°21' E 011°54'0 0.0
2014-Nov-20 20:29N 58°21' E 011°54'0 0.0
2014-Nov-20 19:32N 58°21' E 011°54'0 0.0
2014-Nov-20 18:23N 58°21' E 011°54'0 0.0
2014-Nov-20 17:29N 58°21' E 011°54'0 0.0
2014-Nov-20 16:14N 58°21' E 011°54'0 0.0
2014-Nov-20 15:32N 58°21' E 011°54'0 0.0
2014-Nov-20 14:26N 58°21' E 011°54'0 0.0
2014-Nov-20 13:32N 58°21' E 011°54'0 0.0
2014-Nov-20 12:32N 58°21' E 011°54'0 0.0
2014-Nov-20 11:32N 58°21' E 011°54'0 0.0
2014-Nov-20 10:32N 58°21' E 011°54'0 0.0
2014-Nov-20 09:29N 58°21' E 011°54'0 0.0
2014-Nov-20 08:26N 58°21' E 011°54'0 0.0
2014-Nov-20 07:26N 58°21' E 011°54'0 0.0
2014-Nov-20 06:26N 58°21' E 011°54'0 0.0
2014-Nov-20 05:29N 58°21' E 011°54'0 0.0
2014-Nov-20 04:32N 58°21' E 011°54'0 0.0
2014-Nov-20 03:32N 58°21' E 011°54'0 0.0
2014-Nov-20 02:32N 58°21' E 011°54'0 0.0
2014-Nov-20 01:26N 58°21' E 011°54'0 0.0
2014-Nov-20 00:32N 58°21' E 011°54'0 0.0
2014-Nov-19 23:31N 58°21' E 011°54'0 0.0
2014-Nov-19 22:25N 58°21' E 011°54'0 0.0
2014-Nov-19 21:28N 58°21' E 011°54'0 0.0
2014-Nov-19 20:28N 58°21' E 011°54'0 0.0
2014-Nov-19 19:10N 58°21' E 011°54'0 0.0
2014-Nov-19 18:22N 58°21' E 011°54'0 0.0
2014-Nov-19 17:31N 58°21' E 011°54'0 0.0
2014-Nov-19 16:25N 58°21' E 011°54'0 0.0
2014-Nov-19 15:31N 58°21' E 011°54'0 0.0
2014-Nov-19 14:31N 58°21' E 011°54'0 0.0
2014-Nov-19 12:16N 58°21' E 011°54'0 0.0
2014-Nov-19 11:25N 58°21' E 011°54'0 0.0
2014-Nov-19 10:22N 58°21' E 011°54'0 0.0
2014-Nov-19 09:31N 58°21' E 011°54'0 0.0
2014-Nov-19 08:19N 58°21' E 011°54'0 0.0
2014-Nov-19 07:31N 58°21' E 011°54'0 0.0
2014-Nov-19 06:31N 58°21' E 011°54'0 0.0
2014-Nov-19 05:25N 58°21' E 011°54'0 0.0
2014-Nov-19 04:31N 58°21' E 011°54'0 0.0
2014-Nov-19 03:31N 58°21' E 011°54'0 0.0
2014-Nov-19 02:31N 58°21' E 011°54'0 0.0
2014-Nov-19 01:10N 58°21' E 011°54'0 0.0
2014-Nov-19 00:31N 58°21' E 011°54'0 0.0
2014-Nov-18 23:25N 58°21' E 011°54'0 0.0
2014-Nov-18 22:28N 58°21' E 011°54'0 0.0
2014-Nov-18 21:31N 58°21' E 011°54'0 0.0
2014-Nov-18 20:25N 58°21' E 011°54'0 0.0
2014-Nov-18 19:31N 58°21' E 011°54'0 0.0
2014-Nov-18 18:25N 58°21' E 011°54'0 0.0
2014-Nov-18 17:31N 58°21' E 011°54'0 0.0
2014-Nov-18 16:25N 58°21' E 011°54'0 0.0
2014-Nov-18 15:10N 58°21' E 011°54'0 0.0
2014-Nov-18 14:25N 58°21' E 011°54'0 0.0
2014-Nov-18 13:25N 58°21' E 011°54'0 0.0
2014-Nov-18 11:07N 58°21' E 011°54'0 0.0
2014-Nov-18 08:24N 58°21' E 011°54'0 0.0
2014-Nov-18 06:06N 58°21' E 011°54'0 0.0
2014-Nov-18 05:30N 58°21' E 011°54'0 0.0
2014-Nov-18 04:30N 58°21' E 011°54'0 0.0
2014-Nov-18 03:18N 58°21' E 011°54'0 0.0
2014-Nov-18 02:24N 58°21' E 011°54'0 0.0
2014-Nov-18 01:27N 58°21' E 011°54'0 0.0
2014-Nov-17 23:12N 58°21' E 011°54'0 0.0
2014-Nov-17 22:33N 58°21' E 011°54'0 0.0
2014-Nov-17 21:33N 58°21' E 011°54'0 0.0
2014-Nov-17 20:24N 58°21' E 011°54'0 0.0
2014-Nov-17 19:30N 58°21' E 011°54'0 0.0
2014-Nov-17 18:30N 58°21' E 011°54'0 0.0
2014-Nov-17 17:12N 58°21' E 011°54'0 0.0
2014-Nov-17 16:27N 58°21' E 011°54'0 0.0
2014-Nov-17 15:33N 58°21' E 011°54'0 0.0
2014-Nov-17 14:27N 58°21' E 011°54'0 0.0
2014-Nov-17 13:06N 58°21' E 011°54'0 0.0
2014-Nov-17 12:21N 58°21' E 011°54'0 0.0
2014-Nov-17 11:24N 58°21' E 011°54'0 0.0
2014-Nov-17 10:33N 58°21' E 011°54'0 0.0
2014-Nov-17 09:09N 58°21' E 011°54'0 0.0
2014-Nov-17 08:30N 58°21' E 011°54'0 0.0
2014-Nov-17 07:27N 58°21' E 011°54'0 0.0
2014-Nov-17 06:27N 58°21' E 011°54'0 0.0
2014-Nov-17 05:33N 58°21' E 011°54'0 0.0
2014-Nov-17 04:33N 58°21' E 011°54'0 0.0
2014-Nov-17 03:33N 58°21' E 011°54'0 0.0
2014-Nov-17 02:24N 58°21' E 011°54'0 0.0
2014-Nov-17 01:33N 58°21' E 011°54'0 0.0
2014-Nov-17 00:30N 58°21' E 011°54'0 0.0
2014-Nov-16 23:33N 58°21' E 011°54'0 0.0
2014-Nov-16 22:30N 58°21' E 011°54'0 0.0
2014-Nov-16 21:15N 58°21' E 011°54'0 0.0
2014-Nov-16 20:33N 58°21' E 011°54'0 0.0
2014-Nov-16 19:30N 58°21' E 011°54'0 0.0
2014-Nov-16 18:30N 58°21' E 011°54'0 0.0
2014-Nov-16 17:24N 58°21' E 011°54'0 0.0
2014-Nov-16 16:33N 58°21' E 011°54'0 0.0
2014-Nov-16 15:24N 58°21' E 011°54'0 0.0
2014-Nov-16 14:24N 58°21' E 011°54'0 0.0
2014-Nov-16 13:27N 58°21' E 011°54'0 0.0
2014-Nov-16 12:21N 58°21' E 011°54'0 0.0
2014-Nov-16 11:30N 58°21' E 011°54'0 0.0
2014-Nov-16 10:33N 58°21' E 011°54'0 0.0
2014-Nov-16 09:33N 58°21' E 011°54'0 0.0
2014-Nov-16 08:21N 58°21' E 011°54'0 0.0
2014-Nov-16 07:21N 58°21' E 011°54'0 0.0
2014-Nov-16 06:30N 58°21' E 011°54'0 0.0
2014-Nov-16 05:33N 58°21' E 011°54'0 0.0
2014-Nov-16 04:33N 58°21' E 011°54'0 0.0
2014-Nov-16 03:27N 58°21' E 011°54'0 0.0
2014-Nov-16 02:33N 58°21' E 011°54'0 0.0
2014-Nov-16 01:33N 58°21' E 011°54'0 0.0
2014-Nov-16 00:24N 58°21' E 011°54'0 0.0
2014-Nov-15 23:21N 58°21' E 011°54'0 0.0
2014-Nov-15 22:21N 58°21' E 011°54'0 0.0
2014-Nov-15 21:32N 58°21' E 011°54'0 0.0
2014-Nov-15 20:32N 58°21' E 011°54'0 0.0
2014-Nov-15 19:23N 58°21' E 011°54'0 0.0
2014-Nov-15 18:26N 58°21' E 011°54'0 0.0
2014-Nov-15 17:29N 58°21' E 011°54'0 0.0
2014-Nov-15 16:29N 58°21' E 011°54'0 0.0
2014-Nov-15 15:23N 58°21' E 011°54'0 0.0
2014-Nov-15 14:26N 58°21' E 011°54'0 0.0
2014-Nov-15 12:32N 58°21' E 011°54'0 0.0
2014-Nov-15 11:29N 58°21' E 011°54'0 0.0
2014-Nov-15 10:26N 58°21' E 011°54'0 0.0
2014-Nov-15 09:32N 58°21' E 011°54'0 0.0
2014-Nov-15 08:32N 58°21' E 011°54'0 0.0
2014-Nov-15 07:26N 58°21' E 011°54'0 0.0
2014-Nov-15 06:26N 58°21' E 011°54'0 0.0
2014-Nov-15 05:26N 58°21' E 011°54'0 0.0
2014-Nov-15 04:33N 58°21' E 011°54'5 4.9
2014-Nov-15 03:29N 58°16' E 011°49'8 8.5
2014-Nov-15 02:33N 58°08' E 011°50'8 8.1
2014-Nov-15 01:34N 58°00' E 011°46'8 8.4
2014-Nov-15 00:33N 57°55' E 011°34'9 9.0
2014-Nov-14 23:33N 57°46' E 011°28'10 9.9
2014-Nov-14 22:33N 57°36' E 011°31'1010.3
2014-Nov-14 21:33N 57°27' E 011°39'1010.5
2014-Nov-14 20:33N 57°18' E 011°48'5310.6
2014-Nov-14 15:33N 56°27' E 012°18'1010.2
2014-Nov-14 14:33N 56°18' E 012°24'2211.0
2014-Nov-14 12:34N 55°58' E 012°42'1010.1
2014-Nov-14 11:33N 55°48' E 012°42'8 7.3
2014-Nov-14 10:31N 55°41' E 012°38'0 0.0
2014-Nov-14 09:31N 55°41' E 012°38'0 0.0
2014-Nov-14 08:31N 55°41' E 012°38'0 0.0
2014-Nov-14 07:31N 55°41' E 012°38'0 0.0
2014-Nov-14 06:31N 55°41' E 012°38'0 0.0
2014-Nov-14 05:31N 55°41' E 012°38'0 0.0
2014-Nov-14 04:31N 55°41' E 012°38'0 0.0
2014-Nov-14 03:31N 55°41' E 012°38'0 0.0
2014-Nov-14 02:31N 55°41' E 012°38'0 0.0
2014-Nov-14 01:31N 55°41' E 012°38'0 0.0
2014-Nov-14 00:31N 55°41' E 012°38'0 0.0
2014-Nov-13 23:31N 55°41' E 012°38'0 0.0
2014-Nov-13 22:31N 55°41' E 012°38'0 0.0
2014-Nov-13 21:31N 55°41' E 012°38'0 0.0
2014-Nov-13 20:31N 55°41' E 012°38'0 0.0
2014-Nov-13 19:31N 55°41' E 012°38'0 0.0
2014-Nov-13 18:31N 55°41' E 012°38'0 0.0
2014-Nov-13 17:31N 55°41' E 012°38'0 0.0
2014-Nov-13 16:31N 55°41' E 012°38'0 0.0
2014-Nov-13 15:31N 55°41' E 012°38'0 0.0
2014-Nov-13 14:31N 55°41' E 012°38'0 0.0
2014-Nov-13 13:31N 55°41' E 012°38'0 0.0
2014-Nov-13 12:31N 55°41' E 012°38'0 0.0
2014-Nov-13 11:31N 55°41' E 012°38'0 0.1
2014-Nov-13 10:31N 55°41' E 012°38'0 0.0
2014-Nov-13 09:31N 55°41' E 012°38'0 0.0
2014-Nov-13 08:31N 55°41' E 012°38'0 0.0
2014-Nov-13 07:31N 55°41' E 012°38'0 0.0
2014-Nov-13 06:31N 55°41' E 012°38'  
Track history (hours):
 
Tides and Currents Weather Stations Pressure Air Temp Water Temp Dewpoint Dewpoint Depression Visibility Wind Speed Wind Dir Waves Ship Positions

Listerhav

Last reported at 2014-Nov-23 06:24 UTC. Time now 2014-Nov-24 01:16 UTC.
Position N 55°32' E 015°07'.

Length 88 m; draft 4.1 m.

Type: Cargo ship. MMSI: 236591000.

Date/timePositionNaut miles runAvg speedWind from/ knotsBaromVisibWave heightAir tempDewpointWater temp
2014-Nov-23 06:24N 55°32' E 015°07'8 8.7
2014-Nov-23 05:32N 55°28' E 014°55'9 9.2
2014-Nov-23 04:30N 55°23' E 014°40'9 9.2
2014-Nov-23 03:33N 55°17' E 014°30'9 8.8
2014-Nov-23 02:34N 55°11' E 014°18'26 8.4
2014-Nov-22 23:24N 55°13' E 013°32'8 8.7
2014-Nov-22 22:31N 55°14' E 013°18'8 8.8
2014-Nov-22 21:34N 55°15' E 013°04'9 8.8
2014-Nov-22 20:33N 55°16' E 012°48'7 7.4
2014-Nov-22 19:33N 55°21' E 012°38'8 8.3
2014-Nov-22 18:33N 55°29' E 012°41'8 7.9
2014-Nov-22 17:33N 55°37' E 012°42'7 7.2
2014-Nov-22 16:34N 55°44' E 012°41'8 8.4
2014-Nov-22 15:34N 55°52' E 012°39'9 8.6
2014-Nov-22 14:33N 56°01' E 012°38'7 6.7
2014-Nov-22 13:34N 56°06' E 012°32'8 7.9
2014-Nov-22 12:33N 56°14' E 012°26'9 8.6
2014-Nov-22 11:33N 56°22' E 012°21'67 9.5
2014-Nov-22 04:33N 57°25' E 011°41'1010.0
2014-Nov-22 03:33N 57°34' E 011°33'10 9.5
2014-Nov-22 02:33N 57°43' E 011°29'9 9.3
2014-Nov-22 01:33N 57°52' E 011°30'9 9.0
2014-Nov-22 00:34N 57°58' E 011°43'9 9.0
2014-Nov-21 23:33N 58°07' E 011°48'9 8.8
2014-Nov-21 22:30N 58°16' E 011°50'5 5.2
2014-Nov-21 21:27N 58°21' E 011°54'0 0.0
2014-Nov-21 20:21N 58°21' E 011°54'0 0.0
2014-Nov-21 19:30N 58°21' E 011°54'0 0.0
2014-Nov-21 18:24N 58°21' E 011°54'0 0.0
2014-Nov-21 17:15N 58°21' E 011°54'0 0.0
2014-Nov-21 16:33N 58°21' E 011°54'0 0.0
2014-Nov-21 15:33N 58°21' E 011°54'0 0.0
2014-Nov-21 14:33N 58°21' E 011°54'0 0.0
2014-Nov-21 13:32N 58°21' E 011°54'0 0.0
2014-Nov-21 12:23N 58°21' E 011°54'0 0.0
2014-Nov-21 11:32N 58°21' E 011°54'0 0.0
2014-Nov-21 10:32N 58°21' E 011°54'0 0.0
2014-Nov-21 09:11N 58°21' E 011°54'0 0.0
2014-Nov-21 08:20N 58°21' E 011°54'0 0.0
2014-Nov-21 07:29N 58°21' E 011°54'0 0.0
2014-Nov-21 06:17N 58°21' E 011°54'0 0.0
2014-Nov-21 05:26N 58°21' E 011°54'0 0.0
2014-Nov-21 04:14N 58°21' E 011°54'0 0.0
2014-Nov-21 03:29N 58°21' E 011°54'0 0.0
2014-Nov-21 02:32N 58°21' E 011°54'0 0.0
2014-Nov-21 01:32N 58°21' E 011°54'0 0.0
2014-Nov-21 00:32N 58°21' E 011°54'0 0.0
2014-Nov-20 23:26N 58°21' E 011°54'0 0.0
2014-Nov-20 22:32N 58°21' E 011°54'0 0.0
2014-Nov-20 21:26N 58°21' E 011°54'0 0.0
2014-Nov-20 20:29N 58°21' E 011°54'0 0.0
2014-Nov-20 19:32N 58°21' E 011°54'0 0.0
2014-Nov-20 18:23N 58°21' E 011°54'0 0.0
2014-Nov-20 17:29N 58°21' E 011°54'0 0.0
2014-Nov-20 16:14N 58°21' E 011°54'0 0.0
2014-Nov-20 15:32N 58°21' E 011°54'0 0.0
2014-Nov-20 14:26N 58°21' E 011°54'0 0.0
2014-Nov-20 13:32N 58°21' E 011°54'0 0.0
2014-Nov-20 12:32N 58°21' E 011°54'0 0.0
2014-Nov-20 11:32N 58°21' E 011°54'0 0.0
2014-Nov-20 10:32N 58°21' E 011°54'0 0.0
2014-Nov-20 09:29N 58°21' E 011°54'0 0.0
2014-Nov-20 08:26N 58°21' E 011°54'0 0.0
2014-Nov-20 07:26N 58°21' E 011°54'0 0.0
2014-Nov-20 06:26N 58°21' E 011°54'0 0.0
2014-Nov-20 05:29N 58°21' E 011°54'0 0.0
2014-Nov-20 04:32N 58°21' E 011°54'0 0.0
2014-Nov-20 03:32N 58°21' E 011°54'0 0.0
2014-Nov-20 02:32N 58°21' E 011°54'0 0.0
2014-Nov-20 01:26N 58°21' E 011°54'0 0.0
2014-Nov-20 00:32N 58°21' E 011°54'0 0.0
2014-Nov-19 23:31N 58°21' E 011°54'0 0.0
2014-Nov-19 22:25N 58°21' E 011°54'0 0.0
2014-Nov-19 21:28N 58°21' E 011°54'0 0.0
2014-Nov-19 20:28N 58°21' E 011°54'0 0.0
2014-Nov-19 19:10N 58°21' E 011°54'0 0.0
2014-Nov-19 18:22N 58°21' E 011°54'0 0.0
2014-Nov-19 17:31N 58°21' E 011°54'0 0.0
2014-Nov-19 16:25N 58°21' E 011°54'0 0.0
2014-Nov-19 15:31N 58°21' E 011°54'0 0.0
2014-Nov-19 14:31N 58°21' E 011°54'0 0.0
2014-Nov-19 12:16N 58°21' E 011°54'0 0.0
2014-Nov-19 11:25N 58°21' E 011°54'0 0.0
2014-Nov-19 10:22N 58°21' E 011°54'0 0.0
2014-Nov-19 09:31N 58°21' E 011°54'0 0.0
2014-Nov-19 08:19N 58°21' E 011°54'0 0.0
2014-Nov-19 07:31N 58°21' E 011°54'0 0.0
2014-Nov-19 06:31N 58°21' E 011°54'0 0.0
2014-Nov-19 05:25N 58°21' E 011°54'0 0.0
2014-Nov-19 04:31N 58°21' E 011°54'0 0.0
2014-Nov-19 03:31N 58°21' E 011°54'0 0.0
2014-Nov-19 02:31N 58°21' E 011°54'0 0.0
2014-Nov-19 01:10N 58°21' E 011°54'0 0.0
2014-Nov-19 00:31N 58°21' E 011°54'0 0.0
2014-Nov-18 23:25N 58°21' E 011°54'0 0.0
2014-Nov-18 22:28N 58°21' E 011°54'0 0.0
2014-Nov-18 21:31N 58°21' E 011°54'0 0.0
2014-Nov-18 20:25N 58°21' E 011°54'0 0.0
2014-Nov-18 19:31N 58°21' E 011°54'0 0.0
2014-Nov-18 18:25N 58°21' E 011°54'0 0.0
2014-Nov-18 17:31N 58°21' E 011°54'0 0.0
2014-Nov-18 16:25N 58°21' E 011°54'0 0.0
2014-Nov-18 15:10N 58°21' E 011°54'0 0.0
2014-Nov-18 14:25N 58°21' E 011°54'0 0.0
2014-Nov-18 13:25N 58°21' E 011°54'0 0.0
2014-Nov-18 11:07N 58°21' E 011°54'0 0.0
2014-Nov-18 08:24N 58°21' E 011°54'0 0.0
2014-Nov-18 06:06N 58°21' E 011°54'0 0.0
2014-Nov-18 05:30N 58°21' E 011°54'0 0.0
2014-Nov-18 04:30N 58°21' E 011°54'0 0.0
2014-Nov-18 03:18N 58°21' E 011°54'0 0.0
2014-Nov-18 02:24N 58°21' E 011°54'0 0.0
2014-Nov-18 01:27N 58°21' E 011°54'0 0.0
2014-Nov-17 23:12N 58°21' E 011°54'0 0.0
2014-Nov-17 22:33N 58°21' E 011°54'0 0.0
2014-Nov-17 21:33N 58°21' E 011°54'0 0.0
2014-Nov-17 20:24N 58°21' E 011°54'0 0.0
2014-Nov-17 19:30N 58°21' E 011°54'0 0.0
2014-Nov-17 18:30N 58°21' E 011°54'0 0.0
2014-Nov-17 17:12N 58°21' E 011°54'0 0.0
2014-Nov-17 16:27N 58°21' E 011°54'0 0.0
2014-Nov-17 15:33N 58°21' E 011°54'0 0.0
2014-Nov-17 14:27N 58°21' E 011°54'0 0.0
2014-Nov-17 13:06N 58°21' E 011°54'0 0.0
2014-Nov-17 12:21N 58°21' E 011°54'0 0.0
2014-Nov-17 11:24N 58°21' E 011°54'0 0.0
2014-Nov-17 10:33N 58°21' E 011°54'0 0.0
2014-Nov-17 09:09N 58°21' E 011°54'0 0.0
2014-Nov-17 08:30N 58°21' E 011°54'0 0.0
2014-Nov-17 07:27N 58°21' E 011°54'0 0.0
2014-Nov-17 06:27N 58°21' E 011°54'0 0.0
2014-Nov-17 05:33N 58°21' E 011°54'0 0.0
2014-Nov-17 04:33N 58°21' E 011°54'0 0.0
2014-Nov-17 03:33N 58°21' E 011°54'0 0.0
2014-Nov-17 02:24N 58°21' E 011°54'0 0.0
2014-Nov-17 01:33N 58°21' E 011°54'0 0.0
2014-Nov-17 00:30N 58°21' E 011°54'0 0.0
2014-Nov-16 23:33N 58°21' E 011°54'0 0.0
2014-Nov-16 22:30N 58°21' E 011°54'0 0.0
2014-Nov-16 21:15N 58°21' E 011°54'0 0.0
2014-Nov-16 20:33N 58°21' E 011°54'0 0.0
2014-Nov-16 19:30N 58°21' E 011°54'0 0.0
2014-Nov-16 18:30N 58°21' E 011°54'0 0.0
2014-Nov-16 17:24N 58°21' E 011°54'0 0.0
2014-Nov-16 16:33N 58°21' E 011°54'0 0.0
2014-Nov-16 15:24N 58°21' E 011°54'0 0.0
2014-Nov-16 14:24N 58°21' E 011°54'0 0.0
2014-Nov-16 13:27N 58°21' E 011°54'0 0.0
2014-Nov-16 12:21N 58°21' E 011°54'0 0.0
2014-Nov-16 11:30N 58°21' E 011°54'0 0.0
2014-Nov-16 10:33N 58°21' E 011°54'0 0.0
2014-Nov-16 09:33N 58°21' E 011°54'0 0.0
2014-Nov-16 08:21N 58°21' E 011°54'0 0.0
2014-Nov-16 07:21N 58°21' E 011°54'0 0.0
2014-Nov-16 06:30N 58°21' E 011°54'0 0.0
2014-Nov-16 05:33N 58°21' E 011°54'0 0.0
2014-Nov-16 04:33N 58°21' E 011°54'0 0.0
2014-Nov-16 03:27N 58°21' E 011°54'0 0.0
2014-Nov-16 02:33N 58°21' E 011°54'0 0.0
2014-Nov-16 01:33N 58°21' E 011°54'0 0.0
2014-Nov-16 00:24N 58°21' E 011°54'0 0.0
2014-Nov-15 23:21N 58°21' E 011°54'0 0.0
2014-Nov-15 22:21N 58°21' E 011°54'0 0.0
2014-Nov-15 21:32N 58°21' E 011°54'0 0.0
2014-Nov-15 20:32N 58°21' E 011°54'0 0.0
2014-Nov-15 19:23N 58°21' E 011°54'0 0.0
2014-Nov-15 18:26N 58°21' E 011°54'0 0.0
2014-Nov-15 17:29N 58°21' E 011°54'0 0.0
2014-Nov-15 16:29N 58°21' E 011°54'0 0.0
2014-Nov-15 15:23N 58°21' E 011°54'0 0.0
2014-Nov-15 14:26N 58°21' E 011°54'0 0.0
2014-Nov-15 12:32N 58°21' E 011°54'0 0.0
2014-Nov-15 11:29N 58°21' E 011°54'0 0.0
2014-Nov-15 10:26N 58°21' E 011°54'0 0.0
2014-Nov-15 09:32N 58°21' E 011°54'0 0.0
2014-Nov-15 08:32N 58°21' E 011°54'0 0.0
2014-Nov-15 07:26N 58°21' E 011°54'0 0.0
2014-Nov-15 06:26N 58°21' E 011°54'0 0.0
2014-Nov-15 05:26N 58°21' E 011°54'0 0.0
2014-Nov-15 04:33N 58°21' E 011°54'5 4.9
2014-Nov-15 03:29N 58°16' E 011°49'8 8.5
2014-Nov-15 02:33N 58°08' E 011°50'8 8.1
2014-Nov-15 01:34N 58°00' E 011°46'8 8.4
2014-Nov-15 00:33N 57°55' E 011°34'9 9.0
2014-Nov-14 23:33N 57°46' E 011°28'10 9.9
2014-Nov-14 22:33N 57°36' E 011°31'1010.3
2014-Nov-14 21:33N 57°27' E 011°39'1010.5
2014-Nov-14 20:33N 57°18' E 011°48'5310.6
2014-Nov-14 15:33N 56°27' E 012°18'1010.2
2014-Nov-14 14:33N 56°18' E 012°24'2211.0
2014-Nov-14 12:34N 55°58' E 012°42'1010.1
2014-Nov-14 11:33N 55°48' E 012°42'8 7.3
2014-Nov-14 10:31N 55°41' E 012°38'0 0.0
2014-Nov-14 09:31N 55°41' E 012°38'0 0.0
2014-Nov-14 08:31N 55°41' E 012°38'0 0.0
2014-Nov-14 07:31N 55°41' E 012°38'0 0.0
2014-Nov-14 06:31N 55°41' E 012°38'0 0.0
2014-Nov-14 05:31N 55°41' E 012°38'0 0.0
2014-Nov-14 04:31N 55°41' E 012°38'0 0.0
2014-Nov-14 03:31N 55°41' E 012°38'0 0.0
2014-Nov-14 02:31N 55°41' E 012°38'0 0.0
2014-Nov-14 01:31N 55°41' E 012°38'0 0.0
2014-Nov-14 00:31N 55°41' E 012°38'0 0.0
2014-Nov-13 23:31N 55°41' E 012°38'0 0.0
2014-Nov-13 22:31N 55°41' E 012°38'0 0.0
2014-Nov-13 21:31N 55°41' E 012°38'0 0.0
2014-Nov-13 20:31N 55°41' E 012°38'0 0.0
2014-Nov-13 19:31N 55°41' E 012°38'0 0.0
2014-Nov-13 18:31N 55°41' E 012°38'0 0.0
2014-Nov-13 17:31N 55°41' E 012°38'0 0.0
2014-Nov-13 16:31N 55°41' E 012°38'0 0.0
2014-Nov-13 15:31N 55°41' E 012°38'0 0.0
2014-Nov-13 14:31N 55°41' E 012°38'0 0.0
2014-Nov-13 13:31N 55°41' E 012°38'0 0.0
2014-Nov-13 12:31N 55°41' E 012°38'0 0.0
2014-Nov-13 11:31N 55°41' E 012°38'0 0.1
2014-Nov-13 10:31N 55°41' E 012°38'0 0.0
2014-Nov-13 09:31N 55°41' E 012°38'0 0.0
2014-Nov-13 08:31N 55°41' E 012°38'0 0.0
2014-Nov-13 07:31N 55°41' E 012°38'0 0.0
2014-Nov-13 06:31N 55°41' E 012°38'  

Dump ship's entire track history